sat.trackr.live / text

‹ back to catalog

STARLINK-34056

NORAD 63841 · 2025-093F

PAYLOAD ACTIVE UNKNOWN

§ Identity

Operator
Country
US
Launch date
2025-05-07
Launch site
AFETR
Launch vehicle
Mass (kg)
RCS (m²)

Purposes: comms

External: N2YO · Heavens-Above · Gunter

§ Orbital elements

Epoch: 2026-09-19T18:46:23.877984Z

Period
94.26 min
Inclination
43.0028°
Eccentricity
0.0002673
Mean motion
15.27614517 rev/d
Perigee alt
481.1 km
Apogee alt
484.8 km
Semi-major
6,861.1 km
B*
4.2229e-4
RAAN
61.9830°
Arg perigee
287.4143°
Mean anomaly
72.6417°
Rev number
7,743

§ Raw data

STARLINK-340561 63841U 25093F   26262.78222081  .00011389  00000+0  42229-3 0  99922 63841  43.0028  61.9830 0002673 287.4143  72.6417 15.27614517 77432

JSON: /api/v1/satellites/63841 · /tle

For live sub-satellite position, see the globe view (requires WebGL).

§ Visibility from observer

Set your observer location to see the next 7 days of passes ≥ 10°. The values pass through the URL so the page stays shareable.

No JS? Fill the form by hand. The geolocation button needs JavaScript.